CW4778 Auckland NZ current weather conditions

sailwx.info

Wind from 061 at 4 knots gusting 12

Air temperature 13.9° C
Dewpoint 11.6° C

Last reported at 2015-May-30 11:48 UTC.
Time now 2015-May-30 12:34 UTC

Location: S 36°52' E 174°44'.
View on Google Maps.

See reports from other nearby stations

  
Tides and Currents Weather Stations Pressure Air Temp Water Temp Dewpoint Dewpoint Depression Visibility Wind Speed Wind Dir Waves Ship Positions
date/time (UTC)wind fromknots sea level pressurealtimeterstation pressurevisibilityair tempwater tempwave heightnotes
2015-May-30 11:48 061 4 gusting 12 13.9
2015-May-30 11:28 053 5 gusting 13 13.9
2015-May-30 11:18 053 5 gusting 13 14.4
2015-May-30 11:08 067 6 gusting 15 14.4
2015-May-30 10:38 063 4 gusting 11 13.9
2015-May-30 10:28 055 6 gusting 11 13.9
2015-May-30 10:08 054 6 gusting 13 13.9
2015-May-30 09:48 058 6 gusting 13 13.9
2015-May-30 09:38 057 6 gusting 13 13.9
2015-May-30 09:28 053 7 gusting 15 13.9
2015-May-30 09:18 027 6 gusting 8 13.9
2015-May-30 09:08 064 4 gusting 12 13.9
2015-May-30 08:58 012 4 gusting 11 13.9
2015-May-30 08:48 047 5 gusting 10 13.9
2015-May-30 08:38 042 6 gusting 11 13.9
2015-May-30 08:18 049 7 gusting 11 13.9
2015-May-30 08:08 025 3 gusting 7 13.3
2015-May-30 07:48 081 4 gusting 6 13.9
2015-May-30 07:38 067 4 gusting 8 13.9
2015-May-30 07:28 051 4 gusting 8 13.9
2015-May-30 07:08 041 1 gusting 8 13.9
2015-May-30 06:58 042 2 gusting 7 13.9
2015-May-30 06:48 048 2 gusting 6 13.9
2015-May-30 06:38 065 3 gusting 7 13.9
2015-May-30 06:28 053 3 gusting 6 13.9
2015-May-30 06:18 096 2 gusting 5 13.9
2015-May-30 06:08 069 1 gusting 6 13.9
2015-May-30 05:38 060 4 gusting 7 13.9
2015-May-30 05:28 050 4 gusting 7 13.9
2015-May-30 05:18 055 2 gusting 10 13.9
2015-May-30 04:58 042 4 gusting 8 14.4
2015-May-30 04:48 027 4 gusting 8 14.4
2015-May-30 04:38 072 6 gusting 10 15.0
2015-May-30 04:28 043 5 gusting 12 15.0
2015-May-30 04:18 030 6 gusting 12 15.0
2015-May-30 04:08 037 7 gusting 13 15.0
2015-May-30 03:58 011 6 gusting 13 15.6
2015-May-30 03:48 055 6 gusting 13 16.1
2015-May-30 03:38 007 6 gusting 12 16.1
2015-May-30 03:28 050 6 gusting 10 16.1
2015-May-30 03:18 013 8 gusting 13 15.6
2015-May-30 03:08 041 1 gusting 12 15.6
2015-May-30 02:58 015 5 gusting 11 15.6
2015-May-30 02:48 050 7 gusting 13 15.6
2015-May-30 02:38 031 6 gusting 13 15.6
2015-May-30 02:28 015 6 gusting 12 16.1
2015-May-30 02:18 020 6 gusting 13 16.1
2015-May-30 02:08 014 7 gusting 15 16.1
2015-May-30 01:58 063 6 gusting 12 16.1
2015-May-30 01:48 056 6 gusting 13 16.1
2015-May-30 01:28 057 7 gusting 12 16.1
2015-May-30 01:08 055 6 gusting 15 16.1
2015-May-30 00:58 064 6 gusting 13 16.1
2015-May-30 00:48 091 6 gusting 13 16.1
2015-May-30 00:38 080 6 gusting 14 16.1
2015-May-30 00:28 118 6 gusting 13 16.1
2015-May-30 00:18 040 7 gusting 13 15.6
2015-May-30 00:08 070 6 gusting 18 16.1
2015-May-29 23:38 106 6 gusting 12 16.1
2015-May-29 23:28 075 6 gusting 13 16.1
2015-May-29 23:18 070 4 gusting 13 16.1
2015-May-29 22:58 079 6 gusting 14 15.6
2015-May-29 22:48 057 4 gusting 10 15.6
2015-May-29 22:38 110 6 gusting 12 15.6
2015-May-29 22:28 081 6 gusting 10 15.0
2015-May-29 22:18 070 4 gusting 13 15.0
2015-May-29 22:08 096 6 gusting 15 15.0
2015-May-29 21:58 065 6 gusting 13 14.4
2015-May-29 21:48 089 6 gusting 15 14.4
2015-May-29 21:38 086 5 gusting 11 13.9
2015-May-29 21:28 065 4 gusting 12 13.9
2015-May-29 21:08 100 2 gusting 8 13.3
2015-May-29 20:58 103 6 gusting 12 12.8
2015-May-29 20:48 102 4 gusting 8 11.7
2015-May-29 20:38 117 2 gusting 7 10.6
2015-May-29 20:28 181 1 gusting 4 9.4
2015-May-29 20:18 234 1 gusting 4 8.3
2015-May-29 19:58 233 1 gusting 4 8.3
2015-May-29 19:38 232 2 gusting 4 7.8
2015-May-29 19:28 233 3 gusting 5 7.8
2015-May-29 19:18 127 8.3
2015-May-29 19:08 127 8.9
2015-May-29 18:58 129 0 gusting 5 8.9
2015-May-29 18:48 118 0 gusting 4 8.9
2015-May-29 18:38 104 1 gusting 5 8.9
2015-May-29 18:28 114 2 gusting 5 9.4
2015-May-29 18:18 115 4 gusting 6 9.4
2015-May-29 18:08 110 4 gusting 7 9.4
2015-May-29 17:48 104 3 gusting 6 8.9
2015-May-29 17:38 107 4 gusting 6 8.9
2015-May-29 17:28 122 2 gusting 6 8.3
2015-May-29 17:18 126 0 gusting 4 7.8
2015-May-29 17:08 140 7.8
2015-May-29 16:58 139 1 gusting 2 8.3
2015-May-29 16:48 123 1 gusting 6 8.3
2015-May-29 16:38 139 2 gusting 5 8.3
2015-May-29 16:28 147 2 gusting 5 8.3
2015-May-29 16:08 130 2 gusting 5 8.9
2015-May-29 15:58 130 3 gusting 6 8.9
2015-May-29 15:48 116 4 gusting 6 8.9
2015-May-29 15:38 112 4 gusting 6 8.3
2015-May-29 15:18 221 7.8
2015-May-29 15:08 225 7.8
2015-May-29 14:58 222 7.8
2015-May-29 14:48 292 8.3
2015-May-29 14:38 229 2 gusting 4 7.8
2015-May-29 14:18 147 8.3
2015-May-29 14:08 148 8.3
2015-May-29 13:58 147 8.3
2015-May-29 13:38 147 8.3
2015-May-29 13:18 150 8.9
2015-May-29 13:08 150 8.9
2015-May-29 12:58 148 8.9
2015-May-29 12:48 148 8.9
2015-May-29 12:08 152 0 gusting 4 10.0
2015-May-29 11:58 148 1 gusting 5 10.0
2015-May-29 11:48 186 0 gusting 2 10.0
2015-May-29 11:38 184 1 gusting 4 10.0
2015-May-29 11:18 188 10.6
2015-May-29 11:08 187 11.1
2015-May-29 10:58 188 11.1
2015-May-29 10:48 187 0 gusting 2 11.1
2015-May-29 10:38 178 1 gusting 2 11.1
2015-May-29 10:28 081 11.1
2015-May-29 10:08 080 11.1
2015-May-29 09:48 082 11.7
2015-May-29 09:28 079 0 gusting 2 11.7
2015-May-29 09:18 055 0 gusting 4 11.7
2015-May-29 09:08 339 1 gusting 4 11.7
2015-May-29 08:58 335 11.7
2015-May-29 08:38 338 11.7
2015-May-29 08:28 337 11.7
2015-May-29 08:18 339 11.7
2015-May-29 08:08 335 11.7
2015-May-29 07:58 340 11.7
2015-May-29 07:28 340 0 gusting 6 11.7
2015-May-29 07:08 030 2 gusting 5 12.2
2015-May-29 06:58 056 2 gusting 6 11.7
2015-May-29 06:48 115 0 gusting 1 11.7
2015-May-29 06:28 119 11.7
2015-May-29 06:18 117 11.7
2015-May-29 06:08 117 0 gusting 2 11.7
2015-May-29 05:58 100 1 gusting 2 11.7
2015-May-29 05:38 074 0 gusting 1 12.2
2015-May-29 05:28 073 0 gusting 1 11.7
2015-May-29 04:58 075 13.3
2015-May-29 04:48 075 0 gusting 2 13.9
2015-May-29 04:38 078 13.3
2015-May-29 04:18 053 0 gusting 4 13.9
2015-May-29 04:08 050 0 gusting 4 13.9
2015-May-29 03:58 038 1 gusting 4 13.9
2015-May-29 03:48 021 1 gusting 5 14.4
2015-May-29 03:38 013 2 gusting 5 14.4
2015-May-29 03:28 032 2 gusting 5 14.4
2015-May-29 03:18 063 1 gusting 5 14.4
2015-May-29 03:08 082 0 gusting 5 15.0
2015-May-29 02:48 064 2 gusting 6 15.0
2015-May-29 02:38 112 5 gusting 6 15.0
2015-May-29 02:28 056 2 gusting 6 15.0
2015-May-29 02:18 096 3 gusting 6 15.6
2015-May-29 02:08 094 2 gusting 6 15.6
2015-May-29 01:58 138 1 gusting 8 15.6
2015-May-29 01:48 108 2 gusting 6 15.6
2015-May-29 01:18 062 1 gusting 6 15.0
2015-May-29 01:08 142 2 gusting 5 16.1
2015-May-29 00:58 045 0 gusting 4 15.6
2015-May-29 00:38 249 0 gusting 2 16.7
2015-May-29 00:18 202 2 gusting 5 15.6
2015-May-29 00:08 194 2 gusting 5 15.6
2015-May-28 23:48 210 3 gusting 6 15.6
2015-May-28 23:38 180 1 gusting 5 15.6
2015-May-28 23:28 204 1 gusting 5 15.6
2015-May-28 23:18 173 2 gusting 5 14.4
2015-May-28 23:08 194 1 gusting 4 14.4
2015-May-28 22:58 194 1 gusting 5 15.0
2015-May-28 22:48 199 0 gusting 4 14.4
2015-May-28 22:28 202 1 gusting 4 13.9
2015-May-28 22:18 223 2 gusting 5 13.3
2015-May-28 22:08 217 1 gusting 5 13.3
2015-May-28 21:58 202 2 gusting 5 12.8
2015-May-28 21:48 178 1 gusting 6 12.2
2015-May-28 21:38 186 2 gusting 6 11.1
2015-May-28 21:28 191 2 gusting 5 11.1
2015-May-28 21:08 170 4 gusting 6 10.0
2015-May-28 20:38 175 3 gusting 6 7.2
2015-May-28 20:28 160 3 gusting 6 6.7
2015-May-28 20:18 179 4 gusting 6 6.7
2015-May-28 20:08 176 2 gusting 6 6.7
2015-May-28 19:58 187 2 gusting 5 6.1
2015-May-28 19:38 200 1 gusting 2 5.6
2015-May-28 19:28 202 0 gusting 2 5.6
2015-May-28 19:18 199 1 gusting 4 5.6
2015-May-28 19:08 180 1 gusting 2 5.6
2015-May-28 18:28 180 1 gusting 4 6.1
2015-May-28 18:08 181 2 gusting 4 5.6
2015-May-28 17:58 170 1 gusting 5 5.6
2015-May-28 17:48 180 2 gusting 5 5.6
2015-May-28 17:38 172 2 gusting 5 6.1
2015-May-28 17:18 170 2 gusting 5 5.6
2015-May-28 17:08 169 1 gusting 5 5.6
2015-May-28 16:38 175 2 gusting 5 5.6
2015-May-28 16:28 183 2 gusting 5 6.1
2015-May-28 16:08 175 2 gusting 5 5.6
2015-May-28 15:58 174 2 gusting 5 5.6
2015-May-28 15:38 196 1 gusting 2 5.6
2015-May-28 15:28 194 0 gusting 2 5.6
2015-May-28 15:18 193 1 gusting 2 5.6
2015-May-28 15:08 195 6.1
2015-May-28 14:58 194 1 gusting 2 6.1
2015-May-28 14:48 195 1 gusting 4 6.1
2015-May-28 14:38 193 1 gusting 2 6.1
2015-May-28 14:28 194 0 gusting 2 6.1
2015-May-28 14:18 195 1 gusting 2 6.1
2015-May-28 13:58 194 0 gusting 2 6.1
2015-May-28 13:48 193 0 gusting 2 5.0
2015-May-28 13:38 195 0 gusting 1 4.4
2015-May-28 13:28 196 4.4
2015-May-28 13:18 193 4.4
2015-May-28 12:58 194 4.4
2015-May-28 12:48 195 4.4
2015-May-28 12:38 193 4.4
2015-May-28 12:28 194 4.4
2015-May-28 12:18 195 4.4
2015-May-28 12:08 194 5.0